,,,PA_Meas_PMT16A,,PR_Meas_QMR101_102,,RH_Meas_QMH101,,SR_Meas_QMS101,,TA_Meas_QMH101,,GenWind,,GenWind,
date,time,status,PA,status,PR,status,RH,status,SR,status,TA,status,DirAvg,status,SpdAvg,
2011-03-05, 00:00:05,VALID,999.755,VALID,0,VALID,89.442,VALID,0,VALID,23.2915,VALID,95,VALID,0.500781,
2011-03-05, 00:01:05,VALID,999.744,VALID,0,VALID,89.4802,VALID,0,VALID,23.2702,VALID,95,VALID,0.455078,
2011-03-05, 00:02:05,VALID,999.734,VALID,0,VALID,89.4649,VALID,0.112286,VALID,23.2507,VALID,95,VALID,0.31875,
2011-03-05, 00:03:05,VALID,999.707,VALID,0,VALID,89.5717,VALID,0,VALID,23.2719,VALID,95,VALID,0.151562,
2011-03-05, 00:04:05,VALID,999.69,VALID,0,VALID,89.5489,VALID,0,VALID,23.2524,VALID,95,VALID,0,
2011-03-05, 00:05:05,VALID,999.682,VALID,0,VALID,89.587,VALID,0.112286,VALID,23.2329,VALID,95,VALID,0,
2011-03-05, 00:06:05,VALID,999.664,VALID,0,VALID,89.6404,VALID,0,VALID,23.1744,VALID,95,VALID,0,
2011-03-05, 00:07:05,VALID,999.646,VALID,0,VALID,89.6938,VALID,0.112286,VALID,23.1531,VALID,95,VALID,0,
2011-03-05, 00:08:05,VALID,999.643,VALID,0,VALID,89.7625,VALID,0.112286,VALID,23.1354,VALID,95,VALID,0,
2011-03-05, 00:09:05,VALID,999.618,VALID,0,VALID,89.8922,VALID,0.112286,VALID,23.1159,VALID,95,VALID,0,
2011-03-05, 00:10:05,VALID,999.587,VALID,0,VALID,90.0295,VALID,0,VALID,23.0964,VALID,95,VALID,0,
2011-03-05, 00:11:05,VALID,999.591,VALID,0,VALID,90.1516,VALID,0,VALID,23.0556,VALID,95,VALID,0,
2011-03-05, 00:12:05,VALID,999.535,VALID,0,VALID,90.2889,VALID,0,VALID,23.0769,VALID,95,VALID,0,
2011-03-05, 00:13:05,VALID,999.513,VALID,0,VALID,90.3881,VALID,0.112286,VALID,23.0573,VALID,95,VALID,0,
2011-03-05, 00:14:05,VALID,999.52,VALID,0,VALID,90.5026,VALID,0,VALID,23.0573,VALID,95,VALID,0.161719,
2011-03-05, 00:15:05,VALID,999.525,VALID,0,VALID,90.617,VALID,0,VALID,23.0573,VALID,95,VALID,0.373828,
2011-03-05, 00:16:05,VALID,999.491,VALID,0,VALID,90.6551,VALID,0.112286,VALID,23.0573,VALID,95,VALID,0.463281,
2011-03-05, 00:17:05,VALID,999.487,VALID,0,VALID,90.7467,VALID,0.112286,VALID,23.0378,VALID,95,VALID,0.623438,
2011-03-05, 00:18:05,VALID,999.506,VALID,0,VALID,90.884,VALID,0,VALID,23.0378,VALID,95,VALID,0.596484,
2011-03-05, 00:19:05,VALID,999.494,VALID,0,VALID,90.9909,VALID,0,VALID,23.0573,VALID,95,VALID,0.623438,
2011-03-05, 00:20:05,VALID,999.489,VALID,0,VALID,91.0214,VALID,0,VALID,23.0361,VALID,95,VALID,0.640625,
2011-03-05, 00:21:05,VALID,999.507,VALID,0,VALID,90.9985,VALID,0,VALID,23.0573,VALID,95,VALID,0.423828,
2011-03-05, 00:22:05,VALID,999.482,VALID,0,VALID,90.9222,VALID,0.112286,VALID,23.0166,VALID,95,VALID,0.337891,
2011-03-05, 00:23:05,VALID,999.535,VALID,0,VALID,90.8993,VALID,0,VALID,22.9776,VALID,95,VALID,0.463672,
2011-03-05, 00:24:05,VALID,999.542,VALID,0,VALID,90.9451,VALID,0,VALID,22.9776,VALID,95,VALID,0.670313,
2011-03-05, 00:25:05,VALID,999.555,VALID,0,VALID,90.8611,VALID,0.112286,VALID,22.9385,VALID,90,VALID,0.773047,
2011-03-05, 00:26:05,VALID,999.561,VALID,0,VALID,90.8459,VALID,0,VALID,22.9013,VALID,65,VALID,0.819141,
2011-03-05, 00:27:05,VALID,999.577,VALID,0,VALID,90.9603,VALID,0,VALID,22.9013,VALID,65,VALID,0.817969,
2011-03-05, 00:28:05,VALID,999.601,VALID,0,VALID,91.1206,VALID,0,VALID,22.9208,VALID,65,VALID,0.732031,
2011-03-05, 00:29:05,VALID,999.597,VALID,0,VALID,91.174,VALID,0,VALID,22.9013,VALID,65,VALID,0.788672,
2011-03-05, 00:30:05,VALID,999.6,VALID,0,VALID,91.2655,VALID,0,VALID,22.9013,VALID,65,VALID,0.817969,
2011-03-05, 00:31:05,VALID,999.562,VALID,0,VALID,91.3266,VALID,0,VALID,22.9013,VALID,65,VALID,0.729688,
2011-03-05, 00:32:05,VALID,999.549,VALID,0,VALID,91.38,VALID,0,VALID,22.9013,VALID,65,VALID,0.567187,
2011-03-05, 00:33:05,VALID,999.56,VALID,0,VALID,91.4028,VALID,0,VALID,22.841,VALID,65,VALID,0.326562,
2011-03-05, 00:34:05,VALID,999.546,VALID,0,VALID,91.38,VALID,0,VALID,22.802,VALID,65,VALID,0.147656,
2011-03-05, 00:35:05,VALID,999.555,VALID,0,VALID,91.3876,VALID,0.112286,VALID,22.763,VALID,65,VALID,0.224219,
2011-03-05, 00:36:05,VALID,999.538,VALID,0,VALID,91.4181,VALID,0,VALID,22.7647,VALID,65,VALID,0.315625,
2011-03-05, 00:37:05,VALID,999.544,VALID,0,VALID,91.4944,VALID,0,VALID,22.7842,VALID,65,VALID,0.159375,
2011-03-05, 00:38:05,VALID,999.502,VALID,0,VALID,91.586,VALID,0,VALID,22.7647,VALID,65,VALID,0.141016,
2011-03-05, 00:39:05,VALID,999.479,VALID,0,VALID,91.6699,VALID,0,VALID,22.7647,VALID,65,VALID,0.211328,
2011-03-05, 00:40:05,VALID,999.512,VALID,0,VALID,91.7385,VALID,0,VALID,22.7842,VALID,65,VALID,0.280078,
2011-03-05, 00:41:05,VALID,999.528,VALID,0,VALID,91.8072,VALID,0,VALID,22.8037,VALID,65,VALID,0.242578,
2011-03-05, 00:42:05,VALID,999.524,VALID,0,VALID,91.8835,VALID,0,VALID,22.8037,VALID,65,VALID,0.229687,
2011-03-05, 00:43:05,VALID,999.552,VALID,0,VALID,91.9293,VALID,0,VALID,22.802,VALID,65,VALID,0,
2011-03-05, 00:44:05,VALID,999.542,VALID,0,VALID,91.9827,VALID,0,VALID,22.8037,VALID,65,VALID,0,
2011-03-05, 00:45:05,VALID,999.528,VALID,0,VALID,92.0056,VALID,0,VALID,22.8232,VALID,65,VALID,0,
2011-03-05, 00:46:05,VALID,999.556,VALID,0,VALID,92.0514,VALID,0,VALID,22.8037,VALID,65,VALID,0,
2011-03-05, 00:47:05,VALID,999.542,VALID,0,VALID,92.0437,VALID,0.112286,VALID,22.7825,VALID,65,VALID,0,
2011-03-05, 00:48:05,VALID,999.529,VALID,0,VALID,92.0895,VALID,0,VALID,22.8037,VALID,65,VALID,0,
2011-03-05, 00:49:05,VALID,999.52,VALID,0,VALID,92.1277,VALID,0,VALID,22.802,VALID,65,VALID,0,
2011-03-05, 00:50:05,VALID,999.497,VALID,0,VALID,92.1734,VALID,0,VALID,22.8215,VALID,65,VALID,0,
2011-03-05, 00:51:05,VALID,999.516,VALID,0,VALID,92.1887,VALID,0,VALID,22.8623,VALID,65,VALID,0,
2011-03-05, 00:52:05,VALID,999.503,VALID,0,VALID,92.2192,VALID,0,VALID,22.8427,VALID,65,VALID,0,
2011-03-05, 00:53:05,VALID,999.466,VALID,0,VALID,92.2192,VALID,0.112286,VALID,22.8427,VALID,65,VALID,0,
2011-03-05, 00:54:05,VALID,999.469,VALID,0,VALID,92.2192,VALID,0.112286,VALID,22.8427,VALID,65,VALID,0,
2011-03-05, 00:55:05,VALID,999.444,VALID,0,VALID,92.2192,VALID,0.112286,VALID,22.8427,VALID,65,VALID,0,
2011-03-05, 00:56:05,VALID,999.441,VALID,0,VALID,92.2497,VALID,0.112286,VALID,22.8232,VALID,65,VALID,0,
2011-03-05, 00:57:05,VALID,999.434,VALID,0,VALID,92.265,VALID,0,VALID,22.8232,VALID,65,VALID,0,
2011-03-05, 00:58:05,VALID,999.417,VALID,0,VALID,92.2421,VALID,0.112286,VALID,22.802,VALID,65,VALID,0,
2011-03-05, 00:59:05,VALID,999.433,VALID,0,VALID,92.2421,VALID,0,VALID,22.8037,VALID,65,VALID,0.0402344,
2011-03-05, 01:00:05,VALID,999.414,VALID,0,VALID,92.2574,VALID,0,VALID,22.8037,VALID,65,VALID,0.366406,
2011-03-05, 01:01:05,VALID,999.413,VALID,0,VALID,92.2955,VALID,0,VALID,22.8232,VALID,65,VALID,0.385156,
2011-03-05, 01:02:05,VALID,999.436,VALID,0,VALID,92.3184,VALID,0,VALID,22.8232,VALID,65,VALID,0.582031,
2011-03-05, 01:03:05,VALID,999.436,VALID,0,VALID,92.3184,VALID,0,VALID,22.8427,VALID,65,VALID,0.602734,
2011-03-05, 01:04:05,VALID,999.445,VALID,0,VALID,92.3566,VALID,0,VALID,22.8818,VALID,65,VALID,0.628906,
2011-03-05, 01:05:05,VALID,999.424,VALID,0,VALID,92.326,VALID,0,VALID,22.8818,VALID,65,VALID,0.745703,
2011-03-05, 01:06:05,VALID,999.452,VALID,0,VALID,92.3413,VALID,0,VALID,22.8818,VALID,65,VALID,0.641797,
2011-03-05, 01:07:05,VALID,999.424,VALID,0,VALID,92.3108,VALID,0,VALID,22.8818,VALID,65,VALID,0.601172,
2011-03-05, 01:08:05,VALID,999.44,VALID,0,VALID,92.2803,VALID,0,VALID,22.8818,VALID,65,VALID,0.539453,
2011-03-05, 01:09:05,VALID,999.448,VALID,0,VALID,92.2497,VALID,0,VALID,22.8623,VALID,65,VALID,0.603125,
2011-03-05, 01:10:05,VALID,999.432,VALID,0,VALID,92.2192,VALID,0,VALID,22.8427,VALID,65,VALID,0.606641,
2011-03-05, 01:11:05,VALID,999.455,VALID,0,VALID,92.1963,VALID,0,VALID,22.8623,VALID,65,VALID,0.583203,
2011-03-05, 01:12:05,VALID,999.435,VALID,0,VALID,92.1658,VALID,0.112286,VALID,22.8623,VALID,65,VALID,0.487891,
2011-03-05, 01:13:05,VALID,999.436,VALID,0,VALID,92.1353,VALID,0,VALID,22.825,VALID,65,VALID,0.445313,
2011-03-05, 01:14:05,VALID,999.418,VALID,0,VALID,92.0895,VALID,0,VALID,22.8055,VALID,65,VALID,0.375,
2011-03-05, 01:15:05,VALID,999.436,VALID,0,VALID,92.0514,VALID,0,VALID,22.8055,VALID,65,VALID,0.352734,
2011-03-05, 01:16:05,VALID,999.426,VALID,0,VALID,92.0209,VALID,0,VALID,22.786,VALID,65,VALID,0.274609,
2011-03-05, 01:17:05,VALID,999.42,VALID,0,VALID,91.9903,VALID,0,VALID,22.7664,VALID,65,VALID,0.195703,
2011-03-05, 01:18:05,VALID,999.422,VALID,0,VALID,91.9674,VALID,0,VALID,22.7469,VALID,65,VALID,0.205469,
2011-03-05, 01:19:05,VALID,999.436,VALID,0,VALID,91.9598,VALID,0,VALID,22.7469,VALID,65,VALID,0.000390625,
2011-03-05, 01:20:05,VALID,999.439,VALID,0,VALID,91.9674,VALID,0,VALID,22.7469,VALID,65,VALID,0.0707031,
2011-03-05, 01:21:05,VALID,999.434,VALID,0,VALID,91.9751,VALID,0,VALID,22.7274,VALID,65,VALID,0,
2011-03-05, 01:22:05,VALID,999.436,VALID,0,VALID,91.9369,VALID,0,VALID,22.6867,VALID,65,VALID,0.0386719,
2011-03-05, 01:23:05,VALID,999.433,VALID,0,VALID,91.9751,VALID,0,VALID,22.6884,VALID,65,VALID,0.2125,
2011-03-05, 01:24:05,VALID,999.473,VALID,0,VALID,91.9674,VALID,0,VALID,22.6672,VALID,65,VALID,0.430469,
2011-03-05, 01:25:05,VALID,999.446,VALID,0,VALID,91.9598,VALID,0,VALID,22.6689,VALID,65,VALID,0.514844,
2011-03-05, 01:26:05,VALID,999.439,VALID,0,VALID,91.9827,VALID,0,VALID,22.6884,VALID,65,VALID,0.639063,
2011-03-05, 01:27:05,VALID,999.414,VALID,0,VALID,92.0132,VALID,0,VALID,22.7079,VALID,65,VALID,0.692187,
2011-03-05, 01:28:05,VALID,999.406,VALID,0,VALID,92.0285,VALID,0,VALID,22.7062,VALID,65,VALID,0.735156,
2011-03-05, 01:29:05,VALID,999.407,VALID,0,VALID,92.0743,VALID,0,VALID,22.7452,VALID,66,VALID,0.737109,
2011-03-05, 01:30:05,VALID,999.375,VALID,0,VALID,92.0895,VALID,0,VALID,22.786,VALID,76,VALID,0.704687,
2011-03-05, 01:31:05,VALID,999.342,VALID,0,VALID,92.0971,VALID,0,VALID,22.8445,VALID,73,VALID,0.649609,
2011-03-05, 01:32:05,VALID,999.329,VALID,0,VALID,92.0819,VALID,0,VALID,22.864,VALID,73,VALID,0.519922,
2011-03-05, 01:33:05,VALID,999.327,VALID,0,VALID,92.0437,VALID,0,VALID,22.8835,VALID,73,VALID,0.619141,
2011-03-05, 01:34:05,VALID,999.309,VALID,0,VALID,91.9903,VALID,0,VALID,22.903,VALID,73,VALID,0.597656,
2011-03-05, 01:35:05,VALID,999.308,VALID,0,VALID,91.9522,VALID,0,VALID,22.903,VALID,73,VALID,0.657422,
2011-03-05, 01:36:05,VALID,999.301,VALID,0,VALID,91.9064,VALID,0,VALID,22.9013,VALID,73,VALID,0.541406,
2011-03-05, 01:37:05,VALID,999.286,VALID,0,VALID,91.8759,VALID,0,VALID,22.903,VALID,73,VALID,0.397656,
2011-03-05, 01:38:05,VALID,999.269,VALID,0,VALID,91.8301,VALID,0,VALID,22.903,VALID,73,VALID,0.366797,
2011-03-05, 01:39:05,VALID,999.265,VALID,0,VALID,91.7996,VALID,0,VALID,22.8835,VALID,73,VALID,0.234766,
2011-03-05, 01:40:05,VALID,999.281,VALID,0,VALID,91.7767,VALID,0,VALID,22.864,VALID,73,VALID,0.028125,
2011-03-05, 01:41:05,VALID,999.26,VALID,0,VALID,91.7614,VALID,0,VALID,22.864,VALID,73,VALID,0,
2011-03-05, 01:42:05,VALID,999.26,VALID,0,VALID,91.7385,VALID,0,VALID,22.8427,VALID,73,VALID,0,
2011-03-05, 01:43:05,VALID,999.241,VALID,0,VALID,91.7233,VALID,0,VALID,22.841,VALID,73,VALID,0,
2011-03-05, 01:44:05,VALID,999.238,VALID,0,VALID,91.7538,VALID,0,VALID,22.8215,VALID,73,VALID,0,
2011-03-05, 01:45:05,VALID,999.211,VALID,0,VALID,91.7538,VALID,0,VALID,22.8215,VALID,73,VALID,0,
2011-03-05, 01:46:05,VALID,999.204,VALID,0,VALID,91.7691,VALID,0,VALID,22.8215,VALID,73,VALID,0,
2011-03-05, 01:47:05,VALID,999.207,VALID,0,VALID,91.7996,VALID,0,VALID,22.8427,VALID,73,VALID,0.0726563,
2011-03-05, 01:48:05,VALID,999.204,VALID,0,VALID,91.8454,VALID,0,VALID,22.8427,VALID,74,VALID,0.451953,
2011-03-05, 01:49:05,VALID,999.208,VALID,0,VALID,91.8072,VALID,0.112286,VALID,22.841,VALID,97,VALID,0.969141,
2011-03-05, 01:50:05,VALID,999.216,VALID,0,VALID,91.7385,VALID,0,VALID,22.8818,VALID,97,VALID,0.865234,
2011-03-05, 01:51:05,VALID,999.179,VALID,0,VALID,91.6012,VALID,0,VALID,22.9013,VALID,97,VALID,0.952344,
2011-03-05, 01:52:05,VALID,999.171,VALID,0,VALID,91.4105,VALID,0,VALID,22.9403,VALID,98,VALID,0.878906,
2011-03-05, 01:53:05,VALID,999.127,VALID,0,VALID,91.1892,VALID,0,VALID,22.9385,VALID,105,VALID,0.718359,
2011-03-05, 01:54:05,VALID,999.132,VALID,0,VALID,90.9527,VALID,0,VALID,22.9793,VALID,105,VALID,0.591406,
2011-03-05, 01:55:05,VALID,999.109,VALID,0,VALID,90.7238,VALID,0,VALID,22.9581,VALID,105,VALID,0.60625,
2011-03-05, 01:56:05,VALID,999.109,VALID,0,VALID,90.5254,VALID,0,VALID,22.9988,VALID,106,VALID,0.525,
2011-03-05, 01:57:05,VALID,999.104,VALID,0,VALID,90.3652,VALID,0,VALID,22.9776,VALID,106,VALID,0.630859,
2011-03-05, 01:58:05,VALID,999.067,VALID,0,VALID,90.2889,VALID,0,VALID,22.9971,VALID,106,VALID,0.592969,
2011-03-05, 01:59:05,VALID,999.074,VALID,0,VALID,90.3118,VALID,0,VALID,23.0183,VALID,106,VALID,0.552344,
2011-03-05, 02:00:05,VALID,999.086,VALID,0,VALID,90.3118,VALID,0,VALID,23.0166,VALID,106,VALID,0.144922,
2011-03-05, 02:01:05,VALID,999.083,VALID,0,VALID,90.2966,VALID,0,VALID,23.0573,VALID,106,VALID,0.286719,
2011-03-05, 02:02:05,VALID,999.06,VALID,0,VALID,90.3194,VALID,0,VALID,23.0573,VALID,106,VALID,0.246484,
2011-03-05, 02:03:05,VALID,999.052,VALID,0,VALID,90.35,VALID,0,VALID,23.0769,VALID,106,VALID,0.265625,
2011-03-05, 02:04:05,VALID,999.043,VALID,0,VALID,90.3576,VALID,0,VALID,23.0769,VALID,106,VALID,0.280078,
2011-03-05, 02:05:05,VALID,999.011,VALID,0,VALID,90.3652,VALID,0,VALID,23.0769,VALID,106,VALID,0.280078,
2011-03-05, 02:06:05,VALID,999.001,VALID,0,VALID,90.3576,VALID,0,VALID,23.0964,VALID,101,VALID,0.556641,
2011-03-05, 02:07:05,VALID,999.02,VALID,0,VALID,90.3194,VALID,0,VALID,23.0769,VALID,101,VALID,0.510938,
2011-03-05, 02:08:05,VALID,999.026,VALID,0,VALID,90.2966,VALID,0,VALID,23.0964,VALID,104,VALID,0.43125,
2011-03-05, 02:09:05,VALID,999.041,VALID,0,VALID,90.2431,VALID,0,VALID,23.0964,VALID,109,VALID,0.703516,
2011-03-05, 02:10:05,VALID,999.047,VALID,0,VALID,90.2508,VALID,0,VALID,23.0964,VALID,109,VALID,0.835547,
2011-03-05, 02:11:05,VALID,999.056,VALID,0,VALID,90.205,VALID,0,VALID,23.1159,VALID,100,VALID,0.739062,
2011-03-05, 02:12:05,VALID,999.053,VALID,0,VALID,90.1745,VALID,0,VALID,23.1159,VALID,86,VALID,0.722656,
2011-03-05, 02:13:05,VALID,999.034,VALID,0,VALID,90.1363,VALID,0,VALID,23.1354,VALID,94,VALID,0.790234,
2011-03-05, 02:14:05,VALID,999.042,VALID,0,VALID,90.0982,VALID,0,VALID,23.1354,VALID,105,VALID,0.775781,
2011-03-05, 02:15:05,VALID,999.028,VALID,0,VALID,90.0982,VALID,0,VALID,23.1549,VALID,96,VALID,0.710156,
2011-03-05, 02:16:05,VALID,999.036,VALID,0,VALID,90.0982,VALID,0,VALID,23.1354,VALID,96,VALID,0.544141,
2011-03-05, 02:17:05,VALID,999.034,VALID,0,VALID,90.0829,VALID,0,VALID,23.1549,VALID,96,VALID,0.302344,
2011-03-05, 02:18:05,VALID,999.035,VALID,0,VALID,90.0829,VALID,0,VALID,23.1549,VALID,96,VALID,0.215234,
2011-03-05, 02:19:05,VALID,999.007,VALID,0,VALID,90.1363,VALID,0,VALID,23.1549,VALID,96,VALID,0.390625,
2011-03-05, 02:20:05,VALID,999.018,VALID,0,VALID,90.1821,VALID,0,VALID,23.1549,VALID,96,VALID,0.308203,
2011-03-05, 02:21:05,VALID,998.982,VALID,0,VALID,90.2126,VALID,0,VALID,23.1549,VALID,96,VALID,0.239844,
2011-03-05, 02:22:05,VALID,998.986,VALID,0,VALID,90.2508,VALID,0,VALID,23.1762,VALID,96,VALID,0.126563,
2011-03-05, 02:23:05,VALID,998.973,VALID,0,VALID,90.2584,VALID,0,VALID,23.1549,VALID,96,VALID,0.180078,
2011-03-05, 02:24:05,VALID,998.983,VALID,0,VALID,90.2966,VALID,0,VALID,23.1531,VALID,96,VALID,0.414063,
2011-03-05, 02:25:05,VALID,998.967,VALID,0,VALID,90.3042,VALID,0,VALID,23.1744,VALID,96,VALID,0.323828,
2011-03-05, 02:26:05,VALID,998.959,VALID,0,VALID,90.3347,VALID,0,VALID,23.1744,VALID,96,VALID,0.553516,
2011-03-05, 02:27:05,VALID,998.956,VALID,0,VALID,90.3728,VALID,0,VALID,23.1939,VALID,96,VALID,0.357031,
2011-03-05, 02:28:05,VALID,998.973,VALID,0,VALID,90.3652,VALID,0,VALID,23.1939,VALID,96,VALID,0.457422,
2011-03-05, 02:29:05,VALID,998.966,VALID,0,VALID,90.3652,VALID,0,VALID,23.1939,VALID,96,VALID,0.413281,
2011-03-05, 02:30:05,VALID,998.972,VALID,0,VALID,90.3347,VALID,0,VALID,23.2134,VALID,104,VALID,0.632813,
2011-03-05, 02:31:05,VALID,998.947,VALID,0,VALID,90.2279,VALID,0,VALID,23.2329,VALID,119,VALID,0.670703,
2011-03-05, 02:32:05,VALID,998.961,VALID,0,VALID,90.0982,VALID,0,VALID,23.2117,VALID,121,VALID,0.760938,
2011-03-05, 02:33:05,VALID,998.911,VALID,0,VALID,89.9761,VALID,0,VALID,23.2329,VALID,121,VALID,0.670703,
2011-03-05, 02:34:05,VALID,998.931,VALID,0,VALID,89.9074,VALID,0,VALID,23.2134,VALID,121,VALID,0.762109,
2011-03-05, 02:35:05,VALID,998.92,VALID,0,VALID,89.8693,VALID,0.112286,VALID,23.2329,VALID,121,VALID,0.769531,
2011-03-05, 02:36:05,VALID,998.951,VALID,0,VALID,89.8769,VALID,0,VALID,23.2329,VALID,121,VALID,0.715625,
2011-03-05, 02:37:05,VALID,998.93,VALID,0,VALID,89.9151,VALID,0,VALID,23.2312,VALID,121,VALID,0.610547,
2011-03-05, 02:38:05,VALID,998.925,VALID,0,VALID,89.8998,VALID,0,VALID,23.2329,VALID,121,VALID,0.620313,
2011-03-05, 02:39:05,VALID,998.932,VALID,0,VALID,89.9303,VALID,0,VALID,23.2524,VALID,121,VALID,0.549219,
2011-03-05, 02:40:05,VALID,998.93,VALID,0,VALID,89.9456,VALID,0,VALID,23.2524,VALID,121,VALID,0.469922,
2011-03-05, 02:41:04,VALID,998.915,VALID,0,VALID,89.938,VALID,0,VALID,23.2117,VALID,121,VALID,0.53125,
2011-03-05, 02:42:04,VALID,998.936,VALID,0,VALID,90.0066,VALID,0.112286,VALID,23.2117,VALID,121,VALID,0.399219,
2011-03-05, 02:43:04,VALID,998.921,VALID,0,VALID,90.0371,VALID,0.112286,VALID,23.2117,VALID,121,VALID,0.195703,
2011-03-05, 02:44:04,VALID,998.922,VALID,0,VALID,90.0677,VALID,0,VALID,23.2134,VALID,121,VALID,0.0960938,
2011-03-05, 02:45:04,VALID,998.919,VALID,0,VALID,90.0524,VALID,0,VALID,23.2134,VALID,121,VALID,0.164844,
2011-03-05, 02:46:04,VALID,998.896,VALID,0,VALID,90.1363,VALID,0,VALID,23.1939,VALID,121,VALID,0.179297,
2011-03-05, 02:47:04,VALID,998.909,VALID,0,VALID,90.2584,VALID,0,VALID,23.1921,VALID,121,VALID,0.164453,
2011-03-05, 02:48:04,VALID,998.87,VALID,0,VALID,90.3118,VALID,0,VALID,23.1921,VALID,121,VALID,0.199219,
2011-03-05, 02:49:04,VALID,998.851,VALID,0,VALID,90.3728,VALID,0,VALID,23.2134,VALID,121,VALID,0.310547,
2011-03-05, 02:50:04,VALID,998.856,VALID,0,VALID,90.4034,VALID,0,VALID,23.1939,VALID,121,VALID,0.398828,
2011-03-05, 02:51:04,VALID,998.863,VALID,0,VALID,90.3957,VALID,0,VALID,23.1939,VALID,121,VALID,0.472656,
2011-03-05, 02:52:04,VALID,998.853,VALID,0,VALID,90.3652,VALID,0,VALID,23.1939,VALID,121,VALID,0.557813,
2011-03-05, 02:53:04,VALID,998.865,VALID,0,VALID,90.2431,VALID,0,VALID,23.1939,VALID,121,VALID,0.590625,
2011-03-05, 02:54:04,VALID,998.83,VALID,0,VALID,90.0371,VALID,0,VALID,23.1939,VALID,121,VALID,0.637109,
2011-03-05, 02:55:04,VALID,998.819,VALID,0,VALID,89.8006,VALID,0,VALID,23.1921,VALID,121,VALID,0.480469,
2011-03-05, 02:56:04,VALID,998.818,VALID,0,VALID,89.7014,VALID,0,VALID,23.1939,VALID,121,VALID,0.354688,
2011-03-05, 02:57:04,VALID,998.779,VALID,0,VALID,89.5565,VALID,0,VALID,23.2134,VALID,121,VALID,0.491016,
2011-03-05, 02:58:04,VALID,998.797,VALID,0,VALID,89.3734,VALID,0,VALID,23.2134,VALID,160,VALID,0.851953,
2011-03-05, 02:59:04,VALID,998.786,VALID,0,VALID,89.0453,VALID,0,VALID,23.2329,VALID,160,VALID,0.81875,
2011-03-05, 03:00:04,VALID,998.77,VALID,0,VALID,88.702,VALID,0,VALID,23.2329,VALID,147,VALID,0.955078,
2011-03-05, 03:01:04,VALID,998.793,VALID,0,VALID,88.4426,VALID,0,VALID,23.2524,VALID,143,VALID,1.02344,
2011-03-05, 03:02:04,VALID,998.812,VALID,0,VALID,88.2289,VALID,0,VALID,23.2507,VALID,143,VALID,0.932422,
2011-03-05, 03:03:04,VALID,998.812,VALID,0,VALID,88.0763,VALID,0,VALID,23.2915,VALID,143,VALID,0.954687,
2011-03-05, 03:04:04,VALID,998.836,VALID,0,VALID,88,VALID,0,VALID,23.2915,VALID,143,VALID,0.8375,
2011-03-05, 03:05:04,VALID,998.856,VALID,0,VALID,88.0534,VALID,0,VALID,23.2702,VALID,143,VALID,0.888281,
2011-03-05, 03:06:04,VALID,998.86,VALID,0,VALID,88.1145,VALID,0.112286,VALID,23.2719,VALID,143,VALID,0.915625,
2011-03-05, 03:07:04,VALID,998.855,VALID,0,VALID,88.1526,VALID,0.112286,VALID,23.2719,VALID,143,VALID,0.854688,
2011-03-05, 03:08:04,VALID,998.875,VALID,0,VALID,88.2137,VALID,0.112286,VALID,23.2719,VALID,143,VALID,0.785937,
2011-03-05, 03:09:04,VALID,998.875,VALID,0,VALID,88.206,VALID,0,VALID,23.2719,VALID,143,VALID,0.608203,
2011-03-05, 03:10:04,VALID,998.863,VALID,0,VALID,88.2747,VALID,0,VALID,23.2312,VALID,143,VALID,0.431641,
2011-03-05, 03:11:04,VALID,998.856,VALID,0,VALID,88.351,VALID,0.112286,VALID,23.2524,VALID,143,VALID,0.418359,
2011-03-05, 03:12:04,VALID,998.891,VALID,0,VALID,88.4273,VALID,0.112286,VALID,23.2329,VALID,143,VALID,0.340625,
2011-03-05, 03:13:04,VALID,998.874,VALID,0,VALID,88.5723,VALID,0,VALID,23.2347,VALID,143,VALID,0.483594,
2011-03-05, 03:14:04,VALID,998.852,VALID,0,VALID,88.7249,VALID,0,VALID,23.1939,VALID,143,VALID,0.458203,
2011-03-05, 03:15:04,VALID,998.847,VALID,0,VALID,88.8698,VALID,0,VALID,23.1939,VALID,143,VALID,0.435547,
2011-03-05, 03:16:04,VALID,998.859,VALID,0,VALID,88.9309,VALID,0,VALID,23.2152,VALID,143,VALID,0.221875,
2011-03-05, 03:17:04,VALID,998.875,VALID,0,VALID,88.9919,VALID,0,VALID,23.1939,VALID,143,VALID,0.434766,
2011-03-05, 03:18:04,VALID,998.866,VALID,0,VALID,89.114,VALID,0,VALID,23.1744,VALID,134,VALID,0.688281,
2011-03-05, 03:19:04,VALID,998.816,VALID,0,VALID,89.1216,VALID,0,VALID,23.1957,VALID,134,VALID,0.593359,
2011-03-05, 03:20:04,VALID,998.812,VALID,0,VALID,89.0987,VALID,0,VALID,23.1957,VALID,134,VALID,0.529297,
2011-03-05, 03:21:04,VALID,998.805,VALID,0,VALID,89.1368,VALID,0,VALID,23.1939,VALID,134,VALID,0.462109,
2011-03-05, 03:22:04,VALID,998.799,VALID,0,VALID,89.0834,VALID,0,VALID,23.2152,VALID,134,VALID,0.392188,
2011-03-05, 03:23:04,VALID,998.8,VALID,0,VALID,89.0453,VALID,0,VALID,23.2347,VALID,134,VALID,0.217187,
2011-03-05, 03:24:04,VALID,998.828,VALID,0,VALID,88.9843,VALID,0,VALID,23.2134,VALID,134,VALID,0.222656,
2011-03-05, 03:25:04,VALID,998.81,VALID,0,VALID,88.9843,VALID,0,VALID,23.2347,VALID,134,VALID,0.124609,
2011-03-05, 03:26:04,VALID,998.842,VALID,0,VALID,89.0453,VALID,0,VALID,23.2347,VALID,134,VALID,0.237109,
2011-03-05, 03:27:04,VALID,998.814,VALID,0,VALID,89.0758,VALID,0,VALID,23.2542,VALID,134,VALID,0.263281,
2011-03-05, 03:28:04,VALID,998.839,VALID,0,VALID,89.1216,VALID,0,VALID,23.2312,VALID,134,VALID,0.166016,
2011-03-05, 03:29:04,VALID,998.842,VALID,0,VALID,89.2284,VALID,0,VALID,23.2524,VALID,134,VALID,0.176563,
2011-03-05, 03:30:04,VALID,998.85,VALID,0,VALID,89.32,VALID,0.112286,VALID,23.2117,VALID,134,VALID,0.264844,
2011-03-05, 03:31:04,VALID,998.836,VALID,0,VALID,89.4802,VALID,0,VALID,23.2524,VALID,134,VALID,0.254687,
2011-03-05, 03:32:04,VALID,998.871,VALID,0,VALID,89.6023,VALID,0.112286,VALID,23.2312,VALID,134,VALID,0.266016,
2011-03-05, 03:33:04,VALID,998.91,VALID,0,VALID,89.7777,VALID,0.112286,VALID,23.2312,VALID,134,VALID,0.307813,
2011-03-05, 03:34:04,VALID,998.895,VALID,0,VALID,89.9151,VALID,0,VALID,23.2312,VALID,134,VALID,0.351953,
2011-03-05, 03:35:04,VALID,998.914,VALID,0,VALID,89.9685,VALID,0.112286,VALID,23.2117,VALID,134,VALID,0.253516,
2011-03-05, 03:36:04,VALID,998.91,VALID,0,VALID,89.9685,VALID,0.112286,VALID,23.2329,VALID,134,VALID,0.0824219,
2011-03-05, 03:37:04,VALID,998.941,VALID,0,VALID,89.8922,VALID,0,VALID,23.2134,VALID,134,VALID,0,
2011-03-05, 03:38:04,VALID,998.929,VALID,0,VALID,89.8846,VALID,0,VALID,23.1726,VALID,134,VALID,0,
2011-03-05, 03:39:04,VALID,998.931,VALID,0,VALID,89.8922,VALID,0,VALID,23.1726,VALID,134,VALID,0,
2011-03-05, 03:40:04,VALID,998.947,VALID,0,VALID,89.9456,VALID,0,VALID,23.1939,VALID,134,VALID,0.221484,
2011-03-05, 03:41:04,VALID,998.889,VALID,0,VALID,90.0295,VALID,0,VALID,23.1531,VALID,134,VALID,0.161328,
2011-03-05, 03:42:04,VALID,998.921,VALID,0,VALID,90.1058,VALID,0.112286,VALID,23.1744,VALID,134,VALID,0.35,
2011-03-05, 03:43:04,VALID,998.921,VALID,0,VALID,90.1211,VALID,0.112286,VALID,23.1531,VALID,111,VALID,0.595312,
2011-03-05, 03:44:04,VALID,998.919,VALID,0,VALID,90.0219,VALID,0,VALID,23.1531,VALID,101,VALID,0.625781,
2011-03-05, 03:45:04,VALID,998.935,VALID,0,VALID,89.8388,VALID,0,VALID,23.1744,VALID,101,VALID,0.618359,